sat.trackr.live / text

‹ back to catalog

STARLINK-11538 [DTC]

NORAD 62554 · 2025-006A

PAYLOAD ACTIVE UNKNOWN

§ Identity

Operator
Country
US
Launch date
2025-01-10
Launch site
AFETR
Launch vehicle
Mass (kg)
RCS (m²)

Purposes: comms

External: N2YO · Heavens-Above · Gunter

§ Orbital elements

Epoch: 2026-09-21T16:46:19.928928Z

Period
91.67 min
Inclination
43.0009°
Eccentricity
0.0003123
Mean motion
15.70862696 rev/d
Perigee alt
354.3 km
Apogee alt
358.5 km
Semi-major
6,734.6 km
B*
1.1598e-3
RAAN
38.0531°
Arg perigee
292.3679°
Mean anomaly
67.6858°
Rev number
9,743

§ Raw data

STARLINK-11538 [DTC]1 62554U 25006A   26264.69884177  .00151274  00000+0  11598-2 0  99902 62554  43.0009  38.0531 0003123 292.3679  67.6858 15.70862696 97430

JSON: /api/v1/satellites/62554 · /tle

For live sub-satellite position, see the globe view (requires WebGL).

§ Visibility from observer

Set your observer location to see the next 7 days of passes ≥ 10°. The values pass through the URL so the page stays shareable.

No JS? Fill the form by hand. The geolocation button needs JavaScript.